Location: Bruderhein
(53.8035°N, 112.9265°W)
Time: 15:22:56
(UTC+00:00)

RS-15 - Pass Details

Date: 01 April 2023
Orbit: 1885 x 2159 km, 64.8° (Epoch: 01 June)

Event Time Altitude Azimuth Distance (km) Brightness Sun altitude
Rises 02:50:31 0° 272° (W) 5,685 12.2 -7.3°
Reaches altitude 10° 02:54:13 10° 277° (W) 4,679 11.6 -7.8°
Maximum altitude 03:06:09 51° 352° (N) 2,549 8.9 -9.4°
Drops below altitude 10° 03:17:43 10° 68° (ENE) 4,537 9.5 -11.0°
Sets 03:21:15 0° 74° (ENE) 5,503 9.9 -11.5°
